Location: Killam
(52.7910°N, 111.8608°W)
Time: 04:47:01
(UTC+00:00)

Transit 2A - Pass Details

Date: 16 February 2026
Orbit: 590 x 954 km, 66.7° (Epoch: 14 March)

Event Time Altitude Azimuth Distance (km) Brightness Sun altitude
Rises 01:10:14 0° 297° (WNW) 3,636 10.4 -5.2°
Reaches altitude 10° 01:13:26 10° 312° (NW) 2,689 9.3 -5.7°
Maximum altitude 01:18:18 23° 2° (N) 1,915 7.9 -6.4°
Drops below altitude 10° 01:23:01 10° 53° (NE) 2,607 8.2 -7.1°
Enters shadow 01:24:01 - 59° (ENE) 2,878 8.4 -7.2°
